カタログに戻る

STARLINK-31994

運用中通信VLEO
NORAD 60588·PAYLOAD·🇺🇸 United States

打ち上げ Aug 20, 2024 から Cape Canaveral Space Force Station

Loading…

次のパス (今後24時間)

TLE

最新Source: CelesTrak SupGP

元期: Sep 14, 2026, 20:49 UTC

1 60588C 24150F   26257.86784722 -.00062131  00000+0 -18351-2 0  2576
2 60588  53.1567 143.8372 0001247  94.1326  82.2223 15.34431238    17

AllMySatでSTARLINK-31994をリアルタイム追跡

Download on the App Store